Flag for Mexico Weather past 2 weeks in Playa del Carmen, Quintana Roo, Mexico

Now
72 °F

Scattered clouds.


Feels Like: 75 °F
Forecast: 69 / 76 °F
Wind: 13 mph from East

Location: Cozumel Civ / Mil

Current Time: Jan 29, 2015 at 12:40:01 PM

Latest Report: Jan 29, 2015 at 11:41 AM


Visibility: 10 mi

Pressure: 30.15 "Hg

Humidity: 65%

Dew point: 59 °F

Location of Playa del CarmenLocation

Historic Weather in Playa del Carmen — Graph

°F

Playa del Carmen temperature yesterday

Maximum temperature yesterday: 75 °F (at 12:45 PM)
Minimum temperature yesterday: 64 °F (at 1:42 AM)
Average temperature yesterday: 69 °F

Past Weeks' High & Low Weather Summary

 TemperatureHumidityPressure
High79 °F (Jan 15, 2:42 PM)100% (Jan 14, 2:43 PM)30.20 "Hg (Jan 14, 2:43 PM)
Low61 °F (Jan 15, 1:43 AM)50% (Jan 25, 1:44 PM)29.93 "Hg (Jan 20, 5:43 PM)
Average70 °F87%30.06 "Hg
* Reported Jan 14 10:40 AM — Jan 29 10:40 AM, Playa del Carmen, Weather by CustomWeather, © 2014

Note: Actual official high and low records may vary slightly from our data, if they occured in-between our weather recording intervals... More about our weather records

Advertising

Playa del Carmen weather history for previous 24 hours

 ConditionsComfort  
Time TempWeatherWind HumidityBarometerVisibility
10:40 AM
Jan 29
72 °FScattered clouds.15 mph69%30.19 "Hg8 mi
9:50 AM72 °FScattered clouds.14 mph73%30.19 "Hg8 mi
8:40 AM72 °FScattered clouds.14 mph69%30.19 "Hg8 mi
7:45 AM70 °FPartly sunny.9 mph73%30.15 "Hg8 mi
6:46 AM68 °FScattered clouds.7 mph78%30.12 "Hg7 mi
5:43 AM64 °FPassing clouds.5 mph83%30.09 "Hg7 mi
5:13 AM63 °FPassing clouds.No wind83%30.10 "Hg7 mi
3:41 AM66 °FPassing clouds.5 mph73%30.09 "Hg7 mi
2:40 AM64 °FPassing clouds.12 mph78%30.12 "Hg7 mi
1:40 AM66 °FPassing clouds.5 mph78%30.11 "Hg7 mi
12:46 AM68 °FPassing clouds.9 mph73%30.12 "Hg7 mi
11:42 PM
Jan 28
68 °FPassing clouds.7 mph78%30.10 "Hg7 mi
10:40 PM68 °FPassing clouds.8 mph73%30.15 "Hg7 mi
9:50 PM70 °FPassing clouds.8 mph69%30.15 "Hg7 mi
8:43 PM70 °FPassing clouds.6 mph83%30.16 "Hg7 mi
7:45 PM70 °FPassing clouds.14 mph78%30.13 "Hg7 mi
6:49 PM70 °FPassing clouds.7 mph78%30.12 "Hg7 mi
5:44 PM70 °FPassing clouds.6 mph73%30.07 "Hg8 mi
4:46 PM73 °FSunny.6 mph65%30.09 "Hg8 mi
3:47 PM75 °FPassing clouds.12 mph65%30.08 "Hg8 mi
2:43 PM75 °FPassing clouds.12 mph65%30.10 "Hg8 mi
1:44 PM75 °FScattered clouds.14 mph65%30.10 "Hg8 mi
12:45 PM75 °FScattered clouds.10 mph65%30.13 "Hg8 mi
Weather by CustomWeather, © 2014

See weather overviewHow to use our weather pages